[[{"header":{"parameterUnit":"m.s-1","parameterCategory":1,"la1":30.2991,"la2":30.254,"lo1":-89.0895,"lo2":-89.0444,"dy":0.0017,"dx":0.0017,"nx":28,"ny":28,"refTime":"2023-08-24T09:00:00:Z","depth":0,"parameterNumber":2,"parameterNumberName":"U-component_of_WINDS"},"data":[0,0,0,0,0,0,0,0,0,0,0,0,0,0,0,0,0,0,0,0,0,0,0,0,0,0,0,0,0,0,0,0,0,0,0,0,0,0,0,0,0,0,0,0,0,0,0,0,0,0,0,0,0,0,0,0,0,0,-1.7431,-1.7432,0,-1.7494,-1.7495,-1.7496,-1.7477,-1.7476,-1.7475,-1.7473,-1.7537,-1.754,-1.7543,0,0,0,0,0,0,0,0,0,0,0,0,0,-1.7293,-1.7296,-1.7431,-1.7432,-1.7433,-1.7494,-1.7495,-1.7496,-1.7477,-1.7476,-1.7474,-1.7473,-1.7536,-1.754,-1.7543,0,0,0,0,0,0,0,0,0,0,0,0,0,-1.7355,-1.7297,-1.7431,-1.7431,-1.7431,-1.7494,-1.7495,-1.7496,-1.7478,-1.7476,-1.7474,-1.7472,-1.7535,-1.7539,-1.7544,-1.761,0,0,-1.7557,-1.7559,0,0,0,0,0,0,0,0,-1.7351,-1.736,-1.743,-1.7431,-1.7432,-1.7476,-1.747,-1.7534,-1.7478,-1.746,-1.7473,-1.7471,-1.7518,-1.7524,-1.754,-1.7613,-1.7616,-1.7557,-1.756,-1.7562,-1.7563,0,0,0,0,0,0,0,-1.7347,-1.7357,-1.7456,-1.7431,-1.7432,-1.7427,-1.7434,-1.7482,-1.7499,-1.7462,-1.746,-1.7468,-1.7518,-1.7536,-1.7542,-1.7617,-1.7557,-1.7561,-1.7564,-1.7566,-1.7747,-1.775,0,0,0,0,0,0,-1.7342,-1.7353,-1.7454,-1.7458,-1.7386,-1.7432,-1.7439,-1.7464,-1.7499,-1.7502,-1.747,-1.7467,-1.7529,-1.7536,-1.7544,-1.7624,-1.7562,-1.7566,-1.7569,-1.7745,-1.7748,-1.775,0,0,0,0,0,0,-1.7339,-1.7351,-1.7451,-1.7405,-1.7418,-1.7436,-1.7464,-1.7466,-1.7483,-1.7505,-1.7508,-1.7485,-1.7528,-1.7538,-1.7594,-1.7626,-1.7568,-1.7572,-1.7743,-1.7746,-1.7749,-1.7784,0,0,0,0,0,0,-1.7335,-1.735,-1.7376,-1.7406,-1.742,-1.7501,-1.7466,-1.7469,-1.7491,-1.7488,-1.752,-1.7523,-1.7527,-1.7587,-1.7598,-1.7631,-1.7575,-1.774,-1.7744,-1.7748,-1.778,-1.7788,-1.7795,0,0,0,0,0,-1.7331,-1.7383,-1.7377,-1.7389,-1.7453,-1.7503,-1.7511,-1.7515,-1.7494,-1.752,-1.7534,-1.7522,-1.7621,-1.7593,-1.7605,-1.764,-1.7738,-1.7743,-1.7748,-1.7777,-1.7787,-1.7795,0,0,0,0,0,0,-1.7355,-1.7387,-1.7381,-1.7445,-1.7471,-1.7499,-1.7532,-1.7525,-1.7558,-1.7554,-1.7557,-1.7564,-1.7622,-1.7637,-1.7606,-1.7706,-1.7676,-1.7684,-1.7694,-1.7704,-1.7711,-1.7706,-1.7579,0,0,0,0,0,-1.7368,-1.7407,-1.7432,-1.7486,-1.7499,-1.7514,-1.7535,-1.7536,-1.7564,-1.7575,-1.7593,-1.762,-1.7657,-1.7681,-1.7716,-1.7783,-1.7789,-1.7812,-1.782,-1.7826,-1.7832,-1.7868,-1.7879,-1.7767,-1.7767,-1.7767,0,0,-1.7395,-1.7417,-1.7441,-1.7491,-1.7512,-1.7551,-1.7523,-1.7566,-1.7595,-1.7581,-1.7636,-1.765,-1.768,-1.7742,-1.777,-1.7756,-1.7865,-1.7832,-1.7837,-1.784,-1.7874,-1.7885,-1.7894,-1.777,-1.7769,-1.7769,0,0,-1.7464,-1.7485,-1.7532,-1.7554,-1.7585,-1.7595,-1.7606,-1.7636,-1.7645,-1.77,-1.769,-1.7725,-1.7789,-1.7811,-1.783,-1.7909,-1.79,-1.7921,-1.7959,-1.7995,-1.8003,-1.8011,-1.8039,-1.8049,-1.7927,-1.7927,-1.7927,0,-1.7493,-1.7553,-1.7557,-1.7601,-1.7623,-1.7613,-1.7661,-1.7682,-1.7724,-1.7739,-1.7723,-1.7803,-1.7823,-1.7889,-1.7909,-1.7925,-1.7938,-1.7917,-1.8002,-1.801,-1.8017,-1.8044,-1.8055,-1.7929,-1.7929,-1.7929,-1.7929,0,-1.7587,-1.7628,-1.7663,-1.7704,-1.773,-1.7776,-1.7787,-1.7813,-1.7812,-1.7823,-1.7879,-1.7903,-1.7943,-1.7959,-1.7958,-1.8026,-1.8016,-1.8001,-1.7971,-1.803,-1.8055,-1.8066,-1.7933,-1.7932,-1.7931,-1.7931,0,0,-1.7672,-1.7716,-1.7729,-1.7747,-1.7782,-1.7814,-1.786,-1.7899,-1.7922,-1.7951,-1.7989,-1.8044,-1.803,-1.8053,-1.8054,-1.8086,-1.8147,-1.8067,-1.8067,-1.8081,-1.8223,-1.8234,-1.8245,-1.8141,-1.8143,-1.8144,-1.822,0,-1.7744,-1.7824,-1.783,-1.7902,-1.794,-1.7932,-1.7972,-1.7998,-1.8009,-1.8043,-1.8056,-1.8095,-1.8074,-1.8088,-1.8118,-1.8133,-1.8175,-1.8127,-1.8176,-1.8178,-1.8168,-1.8258,-1.827,-1.834,-1.823,-1.8232,-1.8233,0,-1.7838,-1.7871,-1.7948,-1.7978,-1.7994,-1.803,-1.8067,-1.81,-1.8129,-1.8135,-1.8161,-1.8158,-1.8205,-1.8174,-1.8238,-1.8206,-1.8226,-1.8236,-1.8239,-1.8244,-1.8208,-1.8265,-1.8363,-1.8373,-1.8248,-1.8247,-1.8246,0,-1.7893,-1.7956,-1.801,-1.8027,-1.8063,-1.8088,-1.8105,-1.8132,-1.8156,-1.8188,-1.8204,-1.8241,-1.8262,-1.8291,-1.8298,-1.8275,-1.8363,-1.8332,-1.8369,-1.8369,-1.8387,-1.8386,-1.8489,-1.8401,-1.8401,-1.8401,-1.8401,0,-1.7972,-1.8019,-1.8035,-1.8068,-1.8121,-1.8127,-1.8179,-1.8193,-1.8218,-1.8254,-1.8249,-1.8283,-1.8291,-1.8327,-1.8333,-1.8386,-1.8395,-1.8401,-1.8402,-1.8402,-1.8401,-1.8415,-1.841,-1.8404,-1.8403,-1.8403,-1.8402,0,-1.8042,-1.8054,-1.8113,-1.8143,-1.8152,-1.8189,-1.8215,-1.8247,-1.8258,-1.8303,-1.8314,-1.8332,-1.8374,-1.8385,-1.8434,-1.8439,-1.85,-1.8497,-1.8491,-1.849,-1.8526,-1.8523,-1.8642,-1.8658,-1.856,-1.8561,-1.8561,0,-1.8091,-1.8127,-1.8162,-1.8186,-1.8203,-1.8242,-1.8266,-1.8274,-1.8299,-1.8336,-1.8363,-1.8404,-1.8438,-1.8504,-1.8522,-1.856,-1.8557,-1.8596,-1.8562,-1.8561,-1.8557,-1.8555,-1.8558,-1.8602,-1.8603,-1.8604,-1.8605,0,-1.8178,-1.8183,-1.8218,-1.8256,-1.8286,-1.8316,-1.8345,-1.8365,-1.8376,-1.8405,-1.8448,-1.8474,-1.8525,-1.8566,-1.8604,-1.8621,-1.8615,-1.8615,-1.8626,-1.8625,-1.862,-1.8623,-1.8508,-1.8612,-1.8612,-1.8611,-1.8611,-1.861,-1.8239,-1.827,-1.83,-1.834,-1.8362,-1.839,-1.8421,-1.8437,-1.8473,-1.8515,-1.8518,-1.8564,-1.8593,-1.8644,-1.8663,-1.87,-1.8688,-1.8703,-1.8707,-1.871,-1.8713,-1.8615,-1.8707,-1.8706,-1.8706,-1.8706,-1.8706,0,-1.8325,-1.8343,-1.838,-1.8421,-1.8453,-1.8445,-1.8477,-1.8504,-1.8545,-1.8572,-1.8605,-1.8655,-1.8694,-1.8715,-1.8755,-1.878,-1.8778,-1.879,-1.8788,-1.8792,-1.8722,-1.8709,-1.8791,-1.8791,-1.8791,-1.8791,-1.8791,-1.8791,-1.8373,-1.8427,-1.8435,-1.85,-1.8518,-1.8564,-1.8583,-1.8608,-1.863,-1.8685,-1.8719,-1.8732,-1.8757,-1.8799,-1.8835,-1.884,-1.8855,-1.8868,-1.8872,-1.8806,-1.8797,-1.8789,-1.8776,-1.8871,-1.8872,-1.8939,-1.894,-1.894]},{"header":{"parameterUnit":"m.s-1","parameterCategory":1,"la1":30.2991,"la2":30.254,"lo1":-89.0895,"lo2":-89.0444,"dy":0.0017,"dx":0.0017,"nx":28,"ny":28,"refTime":"2023-08-24T09:00:00:Z","depth":0,"parameterNumber":3,"parameterNumberName":"V-component_of_WINDS"},"data":[0,0,0,0,0,0,0,0,0,0,0,0,0,0,0,0,0,0,0,0,0,0,0,0,0,0,0,0,0,0,0,0,0,0,0,0,0,0,0,0,0,0,0,0,0,0,0,0,0,0,0,0,0,0,0,0,0,0,-1.4832,-1.4832,0,-1.4848,-1.4849,-1.4849,-1.4842,-1.4842,-1.4841,-1.4841,-1.4856,-1.4857,-1.4858,0,0,0,0,0,0,0,0,0,0,0,0,0,-1.4794,-1.4794,-1.4832,-1.4832,-1.4833,-1.4848,-1.4849,-1.4849,-1.4842,-1.4842,-1.4841,-1.4841,-1.4856,-1.4857,-1.4858,0,0,0,0,0,0,0,0,0,0,0,0,0,-1.481,-1.4795,-1.4832,-1.4831,-1.4831,-1.4848,-1.4849,-1.4849,-1.4842,-1.4842,-1.4841,-1.4841,-1.4856,-1.4857,-1.4858,-1.4877,0,0,-1.4862,-1.4862,0,0,0,0,0,0,0,0,-1.4809,-1.4812,-1.4831,-1.4831,-1.4831,-1.4843,-1.4841,-1.4858,-1.4842,-1.4838,-1.4841,-1.484,-1.4852,-1.4854,-1.4858,-1.4878,-1.4878,-1.4862,-1.4863,-1.4863,-1.4863,0,0,0,0,0,0,0,-1.4808,-1.4811,-1.4839,-1.4831,-1.4832,-1.4829,-1.4831,-1.4844,-1.4848,-1.4838,-1.4838,-1.484,-1.4852,-1.4857,-1.4858,-1.4879,-1.4862,-1.4863,-1.4864,-1.4864,-1.4913,-1.4914,0,0,0,0,0,0,-1.4807,-1.481,-1.4838,-1.4839,-1.4819,-1.4831,-1.4832,-1.484,-1.4848,-1.4849,-1.4841,-1.484,-1.4855,-1.4857,-1.4859,-1.4881,-1.4863,-1.4864,-1.4865,-1.4913,-1.4914,-1.4914,0,0,0,0,0,0,-1.4806,-1.481,-1.4837,-1.4824,-1.4828,-1.4832,-1.484,-1.484,-1.4845,-1.485,-1.485,-1.4845,-1.4855,-1.4857,-1.4872,-1.4881,-1.4865,-1.4866,-1.4912,-1.4913,-1.4914,-1.4925,0,0,0,0,0,0,-1.4805,-1.4809,-1.4817,-1.4825,-1.4828,-1.4851,-1.484,-1.4841,-1.4847,-1.4846,-1.4854,-1.4854,-1.4855,-1.4871,-1.4873,-1.4882,-1.4867,-1.4911,-1.4912,-1.4914,-1.4924,-1.4926,-1.4928,0,0,0,0,0,-1.4804,-1.4819,-1.4817,-1.4821,-1.4838,-1.4852,-1.4854,-1.4854,-1.4848,-1.4855,-1.4858,-1.4854,-1.488,-1.4872,-1.4875,-1.4885,-1.4911,-1.4912,-1.4913,-1.4923,-1.4926,-1.4928,0,0,0,0,0,0,-1.4812,-1.482,-1.4818,-1.4837,-1.4844,-1.4851,-1.486,-1.4857,-1.4866,-1.4864,-1.4864,-1.4866,-1.4881,-1.4885,-1.4876,-1.4903,-1.4894,-1.4896,-1.49,-1.4903,-1.4905,-1.4904,-1.4868,0,0,0,0,0,-1.4816,-1.4827,-1.4833,-1.4849,-1.4853,-1.4856,-1.4862,-1.4861,-1.4868,-1.4871,-1.4875,-1.4881,-1.4891,-1.4897,-1.4906,-1.4924,-1.4925,-1.4932,-1.4934,-1.4936,-1.4938,-1.4947,-1.495,-1.4919,-1.4919,-1.4919,0,0,-1.4825,-1.483,-1.4837,-1.4851,-1.4856,-1.4867,-1.4858,-1.487,-1.4878,-1.4873,-1.4887,-1.489,-1.4897,-1.4914,-1.4921,-1.4917,-1.4947,-1.4938,-1.4939,-1.494,-1.4948,-1.4951,-1.4954,-1.492,-1.492,-1.4919,0,0,-1.4845,-1.4851,-1.4864,-1.487,-1.4878,-1.488,-1.4883,-1.489,-1.4892,-1.4907,-1.4903,-1.4912,-1.4929,-1.4934,-1.4938,-1.4961,-1.4957,-1.4964,-1.4975,-1.4983,-1.4986,-1.4988,-1.4995,-1.4998,-1.4965,-1.4965,-1.4965,0,-1.4855,-1.4871,-1.4872,-1.4884,-1.4889,-1.4886,-1.4899,-1.4904,-1.4914,-1.4918,-1.4913,-1.4934,-1.4938,-1.4956,-1.4961,-1.4965,-1.4968,-1.4962,-1.4985,-1.4988,-1.499,-1.4996,-1.4999,-1.4966,-1.4966,-1.4966,-1.4966,0,-1.4882,-1.4893,-1.4903,-1.4913,-1.492,-1.4932,-1.4934,-1.4941,-1.494,-1.4942,-1.4957,-1.4962,-1.4972,-1.4976,-1.4975,-1.4993,-1.499,-1.4986,-1.4977,-1.4993,-1.5,-1.5002,-1.4967,-1.4967,-1.4966,-1.4966,0,0,-1.4908,-1.4918,-1.4922,-1.4926,-1.4935,-1.4943,-1.4955,-1.4965,-1.4971,-1.4978,-1.4988,-1.5001,-1.4997,-1.5002,-1.5002,-1.501,-1.5026,-1.5004,-1.5004,-1.5007,-1.5045,-1.5048,-1.5051,-1.5024,-1.5024,-1.5025,-1.5044,0,-1.4928,-1.495,-1.4951,-1.497,-1.498,-1.4976,-1.4987,-1.4993,-1.4995,-1.5003,-1.5006,-1.5015,-1.5009,-1.5012,-1.502,-1.5023,-1.5034,-1.5021,-1.5032,-1.5032,-1.503,-1.5055,-1.5058,-1.5076,-1.5047,-1.5047,-1.5048,0,-1.4956,-1.4964,-1.4984,-1.4991,-1.4995,-1.5004,-1.5013,-1.5022,-1.5028,-1.5029,-1.5035,-1.5033,-1.5045,-1.5036,-1.5051,-1.5043,-1.5048,-1.5049,-1.505,-1.5051,-1.5041,-1.5055,-1.5082,-1.5085,-1.5052,-1.5051,-1.5051,0,-1.4972,-1.4988,-1.5002,-1.5006,-1.5014,-1.5021,-1.5025,-1.5031,-1.5036,-1.5044,-1.5047,-1.5056,-1.5061,-1.5067,-1.5068,-1.5061,-1.5083,-1.5074,-1.5083,-1.5083,-1.5088,-1.5087,-1.5115,-1.5092,-1.5092,-1.5092,-1.5092,0,-1.4994,-1.5007,-1.501,-1.5018,-1.5032,-1.5032,-1.5045,-1.5049,-1.5054,-1.5062,-1.506,-1.5068,-1.5069,-1.5077,-1.5077,-1.5089,-1.5092,-1.5092,-1.5092,-1.5092,-1.5092,-1.5095,-1.5093,-1.5092,-1.5092,-1.5092,-1.5092,0,-1.5015,-1.5017,-1.5032,-1.5039,-1.5041,-1.505,-1.5056,-1.5063,-1.5065,-1.5076,-1.5079,-1.5082,-1.5091,-1.5093,-1.5104,-1.5104,-1.5118,-1.5117,-1.5116,-1.5116,-1.5125,-1.5124,-1.5155,-1.5158,-1.5133,-1.5133,-1.5134,0,-1.5029,-1.5038,-1.5046,-1.5052,-1.5056,-1.5065,-1.5071,-1.5071,-1.5077,-1.5085,-1.5092,-1.5101,-1.5109,-1.5124,-1.5127,-1.5135,-1.5133,-1.5144,-1.5135,-1.5134,-1.5133,-1.5132,-1.5132,-1.5145,-1.5145,-1.5146,-1.5146,0,-1.5053,-1.5054,-1.5062,-1.5071,-1.5078,-1.5085,-1.5092,-1.5097,-1.5098,-1.5105,-1.5114,-1.512,-1.5131,-1.514,-1.5148,-1.5151,-1.5149,-1.5149,-1.5151,-1.5151,-1.515,-1.515,-1.512,-1.5148,-1.5148,-1.5148,-1.5147,-1.5147,-1.507,-1.5078,-1.5085,-1.5094,-1.5099,-1.5105,-1.5113,-1.5116,-1.5124,-1.5133,-1.5133,-1.5144,-1.5149,-1.516,-1.5164,-1.5171,-1.5168,-1.5172,-1.5172,-1.5173,-1.5174,-1.5149,-1.5173,-1.5173,-1.5173,-1.5173,-1.5173,0,-1.5094,-1.5098,-1.5107,-1.5116,-1.5123,-1.512,-1.5127,-1.5134,-1.5143,-1.5149,-1.5156,-1.5167,-1.5175,-1.5179,-1.5187,-1.5192,-1.5191,-1.5194,-1.5194,-1.5194,-1.5177,-1.5173,-1.5195,-1.5195,-1.5195,-1.5195,-1.5195,-1.5195,-1.5107,-1.512,-1.5122,-1.5137,-1.5141,-1.5151,-1.5155,-1.5161,-1.5165,-1.5177,-1.5185,-1.5187,-1.5191,-1.52,-1.5207,-1.5208,-1.5211,-1.5215,-1.5215,-1.5198,-1.5196,-1.5193,-1.519,-1.5215,-1.5215,-1.5232,-1.5232,-1.5232]}]]